Observations for Trim Market St
| Time | AQI | Temp °C | Hum % | Pres Pa | CO μg/m³ | H₂S μg/m³ | NO μg/m³ | NO₂ μg/m³ | O₃ μg/m³ | SO₂ μg/m³ | PM1 μg/m³ | PM2.5 μg/m³ | PM10 μg/m³ |
|---|---|---|---|---|---|---|---|---|---|---|---|---|---|
| Thursday 9 July 2026 | |||||||||||||
| 07:54 | 1 | 20 | 72 | 49,726 | 0.18 | 0 | 0 | 1.33 | 2.31 | 0 | 0 | 1.04 | 2.59 |
| 07:53 | 1 | 20 | 72 | 48,856 | 0.21 | 0 | 0.23 | 2.6 | 10.3 | 0 | 0 | 1.04 | 2.6 |
| 07:52 | 1 | 19.9 | 72 | 47,932 | 0.26 | 0 | 1.55 | 2.41 | 5.37 | 0 | 0 | 1.99 | 3.84 |
| 07:51 | 1 | 19.8 | 72 | 46,843 | 0.16 | 0 | 0 | 1.5 | 4.25 | 0 | 0 | 1.5 | 3.85 |
| 07:50 | 1 | 19.7 | 72 | 45,686 | 0.12 | 0 | 0 | 4.72 | 5.51 | 0 | 0 | 1.49 | 3.24 |
| 07:49 | 1 | 19.7 | 73 | 44,862 | 0.11 | 0 | 1.43 | 1.89 | 4.72 | 0 | 0 | 1 | 2.64 |
| 07:48 | 1 | 19.6 | 73 | 43,883 | 0.12 | 0 | 0 | 1.91 | 8.21 | 0 | 0 | 1 | 2.64 |
| 07:47 | 1 | 19.5 | 73 | 43,240 | 0.2 | 0 | 0 | 3.62 | 15.97 | 0 | 0 | 0.99 | 2.65 |
| 07:46 | 1 | 19.4 | 73 | 42,581 | 0.25 | 0 | 2.04 | 5.25 | 7.6 | 0 | 0 | 0.99 | 2.65 |
| 07:45 | 1 | 19.4 | 73 | 42,243 | 0.09 | 0 | 0.41 | 0.14 | 16.85 | 0 | 0 | 0.99 | 2.65 |
| 07:42 | 1 | 19.2 | 73 | 41,180 | 0.07 | 0 | 0 | 0.96 | 4.55 | 0 | 0 | 0.98 | 2.67 |
| 07:39 | 1 | 19.1 | 74 | 39,551 | 1.26 | 0 | 1.72 | 1.95 | 4.22 | 0 | 0 | 0.96 | 2.68 |
| 07:37 | 1 | 19 | 74 | 38,366 | 0.09 | 0 | 0.77 | 0 | 10.49 | 0 | 0 | 0.96 | 2.69 |
| 07:31 | 1 | 18.9 | 74 | 31,226 | 0.09 | 0 | 0 | 1.59 | 6.78 | 0 | 0 | 0.92 | 3.33 |
| 07:28 | 1 | 18.8 | 75 | 28,826 | 0.09 | 0 | 1.16 | 6.2 | 6.16 | 0 | 0.71 | 2.83 | 5.73 |
| 07:26 | 1 | 18.8 | 75 | 29,254 | 0.08 | 0 | 1.57 | 5.01 | 7.35 | 0 | 1.43 | 3.32 | 6.33 |
| 07:25 | 1 | 18.7 | 75 | 29,402 | 0.09 | 0 | 1.01 | 3.14 | 10.92 | 0 | 2.14 | 3.32 | 5.73 |
| 07:24 | 1 | 18.7 | 75 | 29,224 | 0.13 | 0 | 0.31 | 2.82 | 4.88 | 0 | 0.71 | 3.31 | 5.73 |
| 07:22 | 1 | 18.7 | 75 | 28,774 | 0.07 | 0 | 0 | 2.42 | 8.74 | 0 | 1.43 | 3.79 | 6.33 |
| 07:21 | 1 | 18.7 | 75 | 28,628 | 0.1 | 0 | 0 | 2.01 | 4.22 | 0 | 1.43 | 3.31 | 5.74 |